Location: Staunton
(38.1490°N, 79.0720°W)
Time: 11:23:33
(UTC-05:00)

ISS - Visible Passes

Search period start: 24 January 2021 00:00
Search period end: 03 February 2021 00:00
Orbit: 418 x 421 km, 51.6° (Epoch: 24 January)

Date Brightness Start Highest point End Pass type
(mag) Time Alt. Az. Time Alt. Az. Time Alt. Az.
24 Jan -1.1 18:59:43 10° NNW 19:00:26 10° NNW 19:01:10 10° N visible
25 Jan -1.2 18:11:09 10° NW 18:12:47 13° NNW 18:14:25 10° N visible
30 Jan -1.3 19:06:40 10° NNW 19:07:40 13° N 19:07:40 13° N visible
31 Jan -1.3 18:19:49 10° N 18:20:40 11° NNE 18:21:31 10° NNE visible
31 Jan -0.7 19:55:09 10° NW 19:55:19 11° NW 19:55:19 11° NW visible
01 Feb -2.1 19:07:55 10° NNW 19:10:04 22° N 19:10:04 22° N visible
02 Feb -1.9 18:20:45 10° NNW 18:23:05 17° NNE 18:24:56 12° ENE visible
02 Feb -1.2 19:56:51 10° NW 19:57:55 19° NW 19:57:55 19° NW visible
